Change the Weather History Date:

Thursday, October 10, 2013

  Actual Average (KRIC) Record (KRIC)
Temperature  
Mean Temperature 60 °F 61 °F  
Max Temperature 62 °F 73 °F 92 °F (1939)
Min Temperature 59 °F 50 °F 36 °F (1974)
Degree Days  
Heating Degree Days 4 5  
Month to date heating degree days 40  
Since 1 July heating degree days 69  
Cooling Degree Days 0 2  
Month to date cooling degree days 22  
Year to date cooling degree days 1526  
Growing Degree Days 10 (Base 50)    
Moisture  
Dew Point 59 °F    
Average Humidity 94    
Maximum Humidity 100    
Minimum Humidity 88    
Precipitation  
Precipitation 0.00 in 0.09 in 2.08 in (1894)
Month to date precipitation 0.98  
Year to date precipitation 35.10  
Snow  
Snow 0.00 in 0.00 in T in (1979)
Month to date snowfall 0.0  
Since 1 July snowfall 0.0  
Snow Depth -    
Sea Level Pressure  
Sea Level Pressure 29.99 in    
Wind  
Wind Speed 11 mph (North)    
Max Wind Speed 15 mph    
Max Gust Speed 22 mph    
Visibility 8 miles    
Events      
T = Trace of Precipitation, MM = Missing Value Source: NWS Daily Summary

Daily Weather History Graph

Daily Weather History Graph

Search for Another Location

Airport or City:

Trip Planner

Search our weather history database for the weather conditions in past years. The results will help you decide how hot, cold, wet, or windy it might be!

Date:

Astronomy

Oct. 10, 2013 Rise Set
Actual Time 7:13 AM EDT 6:39 PM EDT
Civil Twilight 6:47 AM EDT 7:05 PM EDT
Nautical Twilight 6:17 AM EDT 7:35 PM EDT
Astronomical Twilight 5:47 AM EDT 8:06 PM EDT
Moon 12:58 PM EDT (10/10) 11:20 PM EDT (10/10)
Length of Visible Light 12h 18m
Length of Day
11h 26m
Waxing Crescent, 35% of the Moon is Illuminated
Oct 10
Waxing Crescent
Oct 11
First Quarter
Oct 18
Full
Oct 26
Last Quarter
Nov 3
New

Hourly Weather History & Observations

Time (EDT) Temp. Dew Point Humidity Pressure Visibility Wind Dir Wind Speed Gust Speed Precip Events Conditions
12:15 AM 59.0 °F 57.2 °F 94% 30.09 in 7.0 mi North 9.2 mph - N/A   Overcast
12:55 AM 59.0 °F 57.2 °F 94% 30.08 in 7.0 mi North 6.9 mph - N/A   Overcast
1:15 AM 59.0 °F 57.2 °F 94% 30.07 in 7.0 mi North 11.5 mph 16.1 mph N/A   Overcast
1:35 AM 59.0 °F 57.2 °F 94% 30.06 in 10.0 mi North 10.4 mph 16.1 mph N/A   Overcast
1:55 AM 59.0 °F 57.2 °F 94% 30.06 in 5.0 mi North 12.7 mph 17.3 mph N/A   Overcast
2:15 AM 59.0 °F 57.2 °F 94% 30.05 in 5.0 mi North 10.4 mph 17.3 mph N/A   Overcast
2:35 AM 59.0 °F 57.2 °F 94% 30.04 in 5.0 mi North 11.5 mph 18.4 mph N/A   Overcast
2:55 AM 60.8 °F 57.2 °F 88% 30.04 in 10.0 mi North 10.4 mph 18.4 mph N/A   Overcast
3:15 AM 60.8 °F 57.2 °F 88% 30.03 in 7.0 mi North 10.4 mph 20.7 mph N/A   Overcast
3:35 AM 60.8 °F 57.2 °F 88% 30.03 in 7.0 mi North 12.7 mph 16.1 mph N/A   Overcast
3:55 AM 60.8 °F 57.2 °F 88% 30.03 in 7.0 mi North 10.4 mph 18.4 mph N/A   Overcast
4:15 AM 60.8 °F 57.2 °F 88% 30.02 in 3.0 mi North 12.7 mph 17.3 mph N/A   Overcast
4:35 AM 60.8 °F 57.2 °F 88% 30.02 in 7.0 mi North 10.4 mph 19.6 mph N/A   Overcast
4:55 AM 60.8 °F 57.2 °F 88% 30.02 in 5.0 mi North 11.5 mph - N/A   Overcast
5:15 AM 60.8 °F 57.2 °F 88% 30.02 in 4.0 mi North 12.7 mph 18.4 mph N/A   Overcast
5:35 AM 60.8 °F 57.2 °F 88% 30.02 in 7.0 mi North 13.8 mph 19.6 mph N/A   Overcast
5:55 AM 60.8 °F 57.2 °F 88% 30.02 in 10.0 mi North 11.5 mph 17.3 mph N/A   Overcast
6:15 AM 60.8 °F 57.2 °F 88% 30.02 in 10.0 mi North 8.1 mph - N/A   Overcast
6:35 AM 60.8 °F 57.2 °F 88% 30.03 in 5.0 mi North 10.4 mph - N/A   Overcast
6:55 AM 60.8 °F 57.2 °F 88% 30.02 in 10.0 mi North 11.5 mph - N/A   Overcast
7:15 AM 60.8 °F 57.2 °F 88% 30.02 in 10.0 mi North 12.7 mph 17.3 mph N/A   Overcast
7:35 AM 60.8 °F 57.2 °F 88% 30.02 in 10.0 mi North 11.5 mph 19.6 mph N/A   Overcast
7:55 AM 60.8 °F 57.2 °F 88% 30.02 in 7.0 mi North 12.7 mph 18.4 mph N/A   Overcast
8:15 AM 60.8 °F 57.2 °F 88% 30.01 in 5.0 mi North 12.7 mph 21.9 mph N/A   Overcast
8:35 AM 60.8 °F 57.2 °F 88% 30.01 in 4.0 mi North 10.4 mph 20.7 mph N/A   Overcast
8:55 AM 60.8 °F 57.2 °F 88% 30.02 in 7.0 mi North 11.5 mph 18.4 mph N/A   Overcast
9:15 AM 60.8 °F 59.0 °F 94% 30.02 in 5.0 mi North 9.2 mph 17.3 mph N/A   Overcast
9:35 AM 60.8 °F 59.0 °F 94% 30.02 in 5.0 mi North 11.5 mph - N/A   Overcast
9:55 AM 60.8 °F 59.0 °F 94% 30.02 in 10.0 mi North 10.4 mph 17.3 mph N/A   Overcast
10:15 AM 60.8 °F 59.0 °F 94% 30.02 in 10.0 mi North 10.4 mph - N/A   Overcast
10:35 AM 60.8 °F 59.0 °F 94% 30.02 in 7.0 mi North 10.4 mph 20.7 mph N/A   Overcast
10:55 AM 60.8 °F 59.0 °F 94% 30.01 in 10.0 mi North 11.5 mph 20.7 mph N/A   Overcast
11:15 AM 60.8 °F 59.0 °F 94% 30.01 in 5.0 mi North 10.4 mph 20.7 mph N/A   Overcast
11:35 AM 60.8 °F 59.0 °F 94% 30.01 in 5.0 mi North 12.7 mph 20.7 mph N/A   Overcast
11:55 AM 60.8 °F 59.0 °F 94% 30.01 in 7.0 mi North 10.4 mph 16.1 mph N/A   Overcast
12:15 PM 60.8 °F 59.0 °F 94% 30.00 in 10.0 mi North 13.8 mph - N/A   Overcast
12:35 PM 60.8 °F 60.8 °F 100% 30.00 in 10.0 mi NNW 9.2 mph 16.1 mph N/A   Overcast
12:55 PM 62.6 °F 60.8 °F 94% 29.99 in 10.0 mi North 11.5 mph 17.3 mph N/A   Overcast
1:15 PM 62.6 °F 60.8 °F 94% 29.98 in 10.0 mi NNW 11.5 mph 18.4 mph N/A   Overcast
1:35 PM 62.6 °F 60.8 °F 94% 29.97 in 10.0 mi North 13.8 mph 19.6 mph N/A   Overcast
1:55 PM 62.6 °F 60.8 °F 94% 29.97 in 10.0 mi North 10.4 mph 18.4 mph N/A   Overcast
2:15 PM 62.6 °F 60.8 °F 94% 29.96 in 10.0 mi NNW 10.4 mph 17.3 mph N/A   Overcast
2:35 PM 62.6 °F 60.8 °F 94% 29.96 in 10.0 mi NNW 12.7 mph 20.7 mph N/A   Overcast
2:55 PM 62.6 °F 60.8 °F 94% 29.95 in 10.0 mi NNW 12.7 mph 19.6 mph N/A   Overcast
3:15 PM 62.6 °F 60.8 °F 94% 29.96 in 5.0 mi North 11.5 mph - N/A   Overcast
3:35 PM 62.6 °F 60.8 °F 94% 29.96 in 10.0 mi NNW 9.2 mph 18.4 mph N/A   Overcast
3:55 PM 62.6 °F 60.8 °F 94% 29.96 in 3.0 mi North 11.5 mph 18.4 mph N/A   Overcast
4:15 PM 62.6 °F 60.8 °F 94% 29.95 in 2.5 mi NNW 12.7 mph 18.4 mph N/A   Overcast
4:35 PM 60.8 °F 60.8 °F 100% 29.95 in 2.5 mi NNW 11.5 mph - N/A   Overcast
4:55 PM 60.8 °F 60.8 °F 100% 29.94 in 10.0 mi NNW 11.5 mph 16.1 mph N/A   Overcast
5:15 PM 60.8 °F 60.8 °F 100% 29.94 in 7.0 mi NNW 10.4 mph 16.1 mph N/A   Overcast
5:35 PM 60.8 °F 60.8 °F 100% 29.94 in 10.0 mi NNW 15.0 mph 18.4 mph N/A   Overcast
5:55 PM 60.8 °F 60.8 °F 100% 29.95 in 10.0 mi NNW 11.5 mph - N/A   Overcast
6:15 PM 60.8 °F 60.8 °F 100% 29.94 in 10.0 mi NNW 10.4 mph - N/A   Overcast
6:35 PM 60.8 °F 60.8 °F 100% 29.95 in 10.0 mi NNW 11.5 mph - N/A   Overcast
6:55 PM 60.8 °F 60.8 °F 100% 29.95 in 10.0 mi NNW 10.4 mph - N/A   Overcast
7:15 PM 60.8 °F 60.8 °F 100% 29.95 in 10.0 mi NNW 10.4 mph - N/A   Overcast
7:35 PM 60.8 °F 60.8 °F 100% 29.95 in 10.0 mi NNW 12.7 mph 17.3 mph N/A   Overcast
7:55 PM 60.8 °F 60.8 °F 100% 29.95 in 7.0 mi NNW 10.4 mph 16.1 mph N/A   Overcast
8:15 PM 60.8 °F 60.8 °F 100% 29.95 in 10.0 mi North 10.4 mph - N/A   Overcast
8:35 PM 60.8 °F 60.8 °F 100% 29.95 in 10.0 mi North 10.4 mph - N/A   Overcast
8:55 PM 60.8 °F 60.8 °F 100% 29.95 in 7.0 mi North 10.4 mph - N/A   Overcast
9:15 PM 60.8 °F 60.8 °F 100% 29.94 in 7.0 mi North 12.7 mph - N/A   Overcast
9:35 PM 60.8 °F 60.8 °F 100% 29.94 in 7.0 mi NNW 10.4 mph 16.1 mph N/A   Overcast
9:55 PM 60.8 °F 60.8 °F 100% 29.94 in 4.0 mi NNW 12.7 mph 18.4 mph N/A   Overcast
10:15 PM 60.8 °F 60.8 °F 100% 29.94 in 7.0 mi North 9.2 mph - N/A   Overcast
10:35 PM 62.6 °F 60.8 °F 94% 29.94 in 7.0 mi North 11.5 mph - N/A   Overcast
10:55 PM 62.6 °F 60.8 °F 94% 29.94 in 5.0 mi North 10.4 mph - N/A   Overcast
11:15 PM 62.6 °F 60.8 °F 94% 29.94 in 7.0 mi North 8.1 mph - N/A   Overcast
11:35 PM 62.6 °F 60.8 °F 94% 29.93 in 7.0 mi North 9.2 mph - N/A   Overcast
11:55 PM 62.6 °F 60.8 °F 94% 29.92 in 5.0 mi North 9.2 mph - N/A   Overcast